TimePST,TemperatureF,Dew PointF,Humidity,Sea Level PressureIn,VisibilityMPH,Wind Direction,Wind SpeedMPH,Gust SpeedMPH,PrecipitationIn,Events,Conditions,WindDirDegrees,DateUTC
12:53 AM,45.0,25.0,46,29.91,10.0,East,16.1,24.2,N/A,,Clear,100,2013-03-05 08:53:00
1:53 AM,45.0,24.1,44,29.91,10.0,East,12.7,-,N/A,,Clear,100,2013-03-05 09:53:00
2:53 AM,44.1,24.1,45,29.88,10.0,East,18.4,27.6,N/A,,Clear,90,2013-03-05 10:53:00
5:53 AM,44.1,25.0,47,29.81,10.0,East,17.3,26.5,N/A,,Overcast,100,2013-03-05 13:53:00
6:53 AM,44.1,25.0,47,29.83,10.0,ESE,17.3,-,N/A,,Partly Cloudy,110,2013-03-05 14:53:00
7:53 AM,45.0,25.0,46,29.83,10.0,East,15.0,23.0,N/A,,Mostly Cloudy,100,2013-03-05 15:53:00
8:53 AM,45.0,25.0,46,29.87,10.0,East,15.0,21.9,N/A,,Overcast,90,2013-03-05 16:53:00
9:53 AM,45.0,27.0,49,29.87,10.0,ESE,16.1,-,0.00,,Overcast,110,2013-03-05 17:53:00
10:53 AM,43.0,33.1,68,29.86,8.0,East,13.8,-,0.01,Rain,Light Rain,90,2013-03-05 18:53:00
11:53 AM,42.1,35.1,76,29.83,10.0,East,17.3,24.2,0.01,Rain,Light Rain,100,2013-03-05 19:53:00
12:53 PM,42.1,35.1,76,29.83,10.0,East,21.9,28.8,0.00,Rain,Light Rain,90,2013-03-05 20:53:00
1:53 PM,43.0,36.0,76,29.81,10.0,East,19.6,26.5,0.00,,Overcast,90,2013-03-05 21:53:00
2:53 PM,44.1,36.0,73,29.79,10.0,East,18.4,-,N/A,,Overcast,90,2013-03-05 22:53:00
3:53 PM,44.1,35.1,71,29.77,10.0,East,20.7,29.9,N/A,,Overcast,90,2013-03-05 23:53:00
4:53 PM,42.1,37.0,82,29.78,7.0,East,15.0,24.2,0.01,Rain,Light Rain,80,2013-03-06 00:53:00
5:28 PM,42.8,37.4,81,29.78,10.0,East,13.8,-,0.01,Rain,Light Rain,80,2013-03-06 01:28:00
5:53 PM,42.1,37.0,82,29.78,5.0,East,15.0,-,0.03,Rain,Light Rain,80,2013-03-06 01:53:00
6:48 PM,42.8,37.4,81,29.78,10.0,East,13.8,-,0.01,Rain,Light Rain,80,2013-03-06 02:48:00
6:53 PM,42.1,37.0,82,29.78,10.0,East,11.5,-,0.01,Rain,Light Rain,80,2013-03-06 02:53:00
7:19 PM,42.8,37.4,81,29.77,10.0,East,9.2,-,0.01,Rain,Light Rain,80,2013-03-06 03:19:00
7:53 PM,42.1,37.0,82,29.77,10.0,East,9.2,-,0.04,Rain,Light Rain,80,2013-03-06 03:53:00
8:53 PM,42.1,37.0,82,29.75,10.0,East,16.1,-,0.02,Rain,Light Rain,90,2013-03-06 04:53:00
9:53 PM,42.1,37.0,82,29.72,10.0,East,15.0,23.0,0.01,,Overcast,90,2013-03-06 05:53:00
10:53 PM,42.1,36.0,79,29.68,10.0,East,17.3,24.2,N/A,,Partly Cloudy,90,2013-03-06 06:53:00
11:53 PM,43.0,35.1,74,29.65,10.0,East,17.3,25.3,N/A,,Scattered Clouds,90,2013-03-06 07:53:00